Fredericksburg, TX

7:39 PM CDT on March 28, 2017 (GMT -0500)
Fredericksburg

Weather History for KT82 - November, 2012

Change the Weather History Date:

Thursday, November 1, 2012

  Actual Average (KSAT) Record (KSAT)
Temperature  
Mean Temperature 62 °F -  
Max Temperature 80 °F 76 °F 88 °F (1945)
Min Temperature 46 °F 53 °F 31 °F (1993)
Degree Days  
Heating Degree Days 2    
Growing Degree Days 12 (Base 50)    
Moisture  
Dew Point 52 °F    
Average Humidity 75    
Maximum Humidity 100    
Minimum Humidity 37    
Precipitation  
Precipitation 0.00 in - - ()
Sea Level Pressure  
Sea Level Pressure 30.06 in    
Wind  
Wind Speed 3 mph (SSW)    
Max Wind Speed 12 mph    
Max Gust Speed 17 mph    
Visibility 10 miles    
Events Fog    
Averages and records for this station are not official NWS values.
T = Trace of Precipitation, MM = Missing Value Source: NWS Daily Summary

Daily Weather History Graph

Daily Weather History Graph

Search for Another Location

Airport or City:

Trip Planner

Search our weather history database for the weather conditions in past years. The results will help you decide how hot, cold, wet, or windy it might be!

Date:

Astronomy

Nov. 01, 2012 Rise Set
Actual Time 7:50 AM CDT 6:47 PM CDT
Civil Twilight 7:25 AM CDT 7:12 PM CDT
Nautical Twilight 6:57 AM CDT 7:40 PM CDT
Astronomical Twilight 6:28 AM CDT 8:09 PM CDT
Moon 8:54 PM CDT (11/1) 10:15 AM CDT (11/1)
Length of Visible Light 11h 47m
Length of Day
10h 57m
Waning Gibbous, 93% of the Moon is Illuminated
Nov 1
Waning Gibbous
Nov 6
Last Quarter
Nov 13
New
Nov 20
First Quarter
Nov 28
Full

Hourly Weather History & Observations

Time (CDT) Temp. Dew Point Humidity Pressure Visibility Wind Dir Wind Speed Gust Speed Precip Events Conditions
12:15 AM 53.1 °F 49.5 °F 88% 30.08 in 10.0 mi NW 3.5 mph - N/A   Clear
12:35 AM 52.9 °F 49.6 °F 89% 30.08 in 10.0 mi West 3.5 mph - N/A   Clear
1:15 AM 52.7 °F 50.2 °F 91% 30.08 in 10.0 mi Calm Calm - N/A   Clear
1:35 AM 52.3 °F 50.4 °F 93% 30.08 in 10.0 mi Calm Calm - N/A   Clear
1:55 AM 51.8 °F 49.8 °F 93% 30.08 in 10.0 mi Calm Calm - N/A   Clear
2:15 AM 50.5 °F 49.3 °F 95% 30.08 in 10.0 mi NW 4.6 mph - N/A   Clear
2:35 AM 50.4 °F 49.3 °F 96% 30.08 in 10.0 mi Calm Calm - N/A   Clear
2:55 AM 49.6 °F 49.1 °F 98% 30.07 in 10.0 mi West 3.5 mph - N/A   Clear
3:15 AM 50.0 °F 49.1 °F 97% 30.07 in 10.0 mi Calm Calm - N/A   Clear
3:35 AM 48.4 °F 47.8 °F 98% 30.06 in 10.0 mi NW 3.5 mph - N/A   Clear
3:55 AM 48.9 °F 48.7 °F 99% 30.06 in 10.0 mi Calm Calm - N/A   Clear
4:15 AM 48.7 °F 48.2 °F 98% 30.06 in 10.0 mi Calm Calm - N/A   Clear
4:35 AM 48.2 °F 48.2 °F 100% 30.07 in 10.0 mi Calm Calm - N/A   Clear
5:15 AM 47.5 °F 47.3 °F 99% 30.06 in 10.0 mi Calm Calm - N/A   Clear
5:35 AM 47.5 °F 47.5 °F 100% 30.06 in 10.0 mi Calm Calm - N/A   Clear
5:55 AM 48.2 °F 48.2 °F 100% 30.07 in 10.0 mi Calm Calm - N/A   Clear
6:15 AM 48.4 °F 48.4 °F 100% 30.07 in 10.0 mi Calm Calm - N/A   Clear
6:35 AM 48.4 °F 48.4 °F 100% 30.07 in 10.0 mi Calm Calm - N/A   Clear
6:55 AM 46.9 °F 46.9 °F 100% 30.07 in 10.0 mi Calm Calm - N/A   Scattered Clouds
7:15 AM 47.7 °F 47.7 °F 100% 30.08 in 0.2 mi Calm Calm - N/A Fog Fog
7:35 AM 47.1 °F 47.1 °F 100% 30.08 in 7.0 mi Calm Calm - N/A   Mostly Cloudy
7:55 AM 46.6 °F 46.6 °F 100% 30.08 in 10.0 mi Calm Calm - N/A   Scattered Clouds
8:35 AM 48.0 °F 48.0 °F 100% 30.09 in 10.0 mi Calm Calm - N/A   Clear
9:15 AM 52.5 °F 52.0 °F 98% 30.10 in 10.0 mi Calm Calm - N/A   Clear
9:35 AM 55.6 °F 54.9 °F 97% 30.11 in 10.0 mi SW 5.8 mph - N/A   Clear
9:55 AM 58.8 °F 57.2 °F 94% 30.11 in 10.0 mi Calm Calm - N/A   Clear
10:15 AM 61.3 °F 58.8 °F 91% 30.11 in 10.0 mi Calm Calm - N/A   Clear
10:35 AM 63.9 °F 60.6 °F 89% 30.11 in 10.0 mi Calm Calm - N/A   Clear
10:55 AM 66.9 °F 62.2 °F 85% 30.11 in 10.0 mi WSW 3.5 mph - N/A   Clear
11:15 AM 70.7 °F 63.9 °F 79% 30.11 in 10.0 mi SW 5.8 mph - N/A   Clear
11:35 AM 74.1 °F 62.4 °F 67% 30.11 in 10.0 mi SW 10.4 mph - N/A   Clear
11:55 AM 74.7 °F 60.4 °F 61% 30.11 in 10.0 mi WSW 9.2 mph - N/A   Clear
12:15 PM 75.6 °F 61.2 °F 61% 30.10 in 10.0 mi SSW 6.9 mph - N/A   Clear
12:35 PM 75.7 °F 60.4 °F 59% 30.10 in 10.0 mi SSW 9.2 mph - N/A   Clear
12:55 PM 77.0 °F 57.6 °F 51% 30.09 in 10.0 mi South 6.9 mph - N/A   Clear
1:15 PM 77.7 °F 56.8 °F 48% 30.08 in 10.0 mi SSW 9.2 mph - N/A   Clear
1:35 PM 78.1 °F 55.9 °F 46% 30.07 in 10.0 mi SSW 11.5 mph - N/A   Clear
1:55 PM 78.8 °F 56.5 °F 46% 30.06 in 10.0 mi SSW 9.2 mph - N/A   Clear
2:15 PM 79.3 °F 53.2 °F 40% 30.05 in 10.0 mi South 10.4 mph - N/A   Clear
2:35 PM 79.3 °F 52.7 °F 39% 30.04 in 10.0 mi SW 10.4 mph - N/A   Clear
2:55 PM 79.9 °F 52.0 °F 38% 30.04 in 10.0 mi South 8.1 mph 17.3 mph N/A   Clear
3:15 PM 79.7 °F 52.2 °F 38% 30.02 in 10.0 mi South 8.1 mph - N/A   Clear
3:35 PM 79.7 °F 52.0 °F 38% 30.02 in 10.0 mi South 6.9 mph - N/A   Clear
4:15 PM 79.7 °F 51.6 °F 38% 30.02 in 10.0 mi South 4.6 mph - N/A   Clear
4:35 PM 79.7 °F 50.9 °F 37% 30.01 in 10.0 mi SSW 8.1 mph - N/A   Clear
5:15 PM 79.0 °F 51.4 °F 38% 30.01 in 10.0 mi SSW 8.1 mph - N/A   Clear
5:35 PM 78.3 °F 50.0 °F 37% 30.01 in 10.0 mi South 8.1 mph - N/A   Clear
5:55 PM 77.7 °F 51.1 °F 39% 30.01 in 10.0 mi SSW 8.1 mph - N/A   Clear
6:15 PM 76.5 °F 51.6 °F 42% 30.01 in 10.0 mi South 5.8 mph - N/A   Clear
6:35 PM 74.3 °F 53.1 °F 47% 30.01 in 10.0 mi South 4.6 mph - N/A   Clear
6:55 PM 72.3 °F 51.8 °F 48% 30.02 in 10.0 mi SSE 4.6 mph - N/A   Clear
7:15 PM 71.6 °F 51.8 °F 50% 30.02 in 10.0 mi SSE 4.6 mph - N/A   Clear
7:35 PM 69.4 °F 52.0 °F 54% 30.02 in 10.0 mi SSE 3.5 mph - N/A   Clear
7:55 PM 68.4 °F 52.2 °F 56% 30.03 in 10.0 mi Calm Calm - N/A   Clear
8:15 PM 63.3 °F 52.3 °F 67% 30.03 in 10.0 mi Calm Calm - N/A   Clear
8:35 PM 59.7 °F 51.6 °F 75% 30.04 in 10.0 mi Calm Calm - N/A   Clear
8:55 PM 57.2 °F 51.8 °F 82% 30.04 in 10.0 mi Calm Calm - N/A   Clear
9:15 PM 57.7 °F 51.6 °F 80% 30.04 in 10.0 mi Calm Calm - N/A   Clear
9:35 PM 57.0 °F 51.4 °F 82% 30.04 in 10.0 mi Calm Calm - N/A   Clear
9:55 PM 55.8 °F 51.1 °F 84% 30.04 in 10.0 mi Calm Calm - N/A   Clear
10:15 PM 54.7 °F 50.7 °F 86% 30.04 in 10.0 mi Calm Calm - N/A   Clear
10:35 PM 53.4 °F 50.0 °F 88% 30.04 in 10.0 mi Calm Calm - N/A   Clear
10:55 PM 53.6 °F 50.2 °F 88% 30.04 in 10.0 mi NW 4.6 mph - N/A   Clear
11:15 PM 53.4 °F 50.0 °F 88% 30.04 in 10.0 mi Calm Calm - N/A   Clear
11:35 PM 53.6 °F 50.0 °F 88% 30.04 in 10.0 mi NNW 3.5 mph - N/A   Clear
11:55 PM 53.2 °F 49.8 °F 88% 30.04 in 10.0 mi Calm Calm - N/A   Clear